Location: Albany
(35.0170°S, 117.8920°E)
Time: 17:08:21
(UTC+08:00)

Transit 2A - Pass Details

Date: 22 January 2021
Orbit: 601 x 958 km, 66.7° (Epoch: 02 March)

Event Time Altitude Azimuth Distance (km) Brightness Sun altitude
Rises 15:40:35 0° 345° (NNW) 2,910 9.2 43.4°
Reaches altitude 10° 15:42:47 10° 349° (N) 2,044 8.5 42.9°
Maximum altitude 15:47:18 57° 68° (ENE) 813 6.4 42.0°
Drops below altitude 10° 15:52:19 10° 145° (SE) 2,269 8.3 41.0°
Sets 15:54:52 0° 149° (SSE) 3,262 9.0 40.5°
